Total_Precipitation_Accumulation
0.08 0.09 0.10 0.11 0.07 0.04 0.02 0.01 0.00 0.01 0.01 0.00 0.01 0.01 0.01 0.02 0.06 0.12 0.10 0.08 0.11 0.15 0.20 0.35 0.50 0.63 0.68 0.67 0.64 0.60 0.58 0.61 0.66 0.72 0.65 0.65 0.67 0.66 0.71 0.70 0.73 0.81 0.87 0.92 0.90 0.88 0.85 0.86 0.86
0.10 0.13 0.15 0.15 0.07 0.03 0.02 0.01 0.01 0.01 0.01 0.00 0.01 0.01 0.01 0.02 0.04 0.06 0.08 0.08 0.10 0.13 0.17 0.25 0.45 0.60 0.68 0.67 0.66 0.62 0.59 0.58 0.63 0.72 0.70 0.72 0.74 0.77 0.74 0.74 0.78 0.82 0.88 0.88 0.93 0.91 0.90 0.87 0.82
0.15 0.19 0.20 0.16 0.06 0.02 0.01 0.01 0.01 0.01 0.01 0.01 0.01 0.01 0.02 0.03 0.04 0.05 0.07 0.09 0.10 0.14 0.18 0.27 0.48 0.61 0.71 0.74 0.73 0.68 0.65 0.66 0.67 0.75 0.75 0.78 0.83 0.85 0.79 0.78 0.79 0.80 0.83 0.81 0.82 0.85 0.82 0.79 0.73
0.22 0.29 0.25 0.14 0.04 0.01 0.01 0.01 0.01 0.01 0.02 0.02 0.02 0.02 0.02 0.03 0.04 0.05 0.07 0.10 0.11 0.17 0.23 0.31 0.50 0.63 0.71 0.78 0.83 0.80 0.75 0.74 0.75 0.82 0.87 0.88 0.86 0.86 0.84 0.78 0.71 0.71 0.75 0.74 0.74 0.75 0.74 0.76 0.74
0.31 0.31 0.23 0.11 0.03 0.02 0.02 0.01 0.01 0.02 0.03 0.02 0.03 0.03 0.05 0.05 0.05 0.07 0.09 0.11 0.14 0.21 0.26 0.34 0.53 0.66 0.73 0.80 0.86 0.85 0.85 0.85 0.84 0.89 0.94 0.97 0.95 0.89 0.85 0.80 0.72 0.66 0.62 0.66 0.70 0.71 0.72 0.78 0.75
0.41 0.32 0.16 0.06 0.02 0.01 0.01 0.02 0.02 0.03 0.03 0.04 0.06 0.07 0.08 0.08 0.10 0.12 0.12 0.15 0.18 0.22 0.26 0.36 0.60 0.73 0.78 0.84 0.91 0.92 0.94 0.96 0.95 0.97 1.04 1.06 1.03 0.96 0.86 0.78 0.74 0.71 0.63 0.61 0.64 0.68 0.75 0.80 0.73
0.43 0.29 0.12 0.03 0.02 0.01 0.01 0.02 0.03 0.04 0.05 0.06 0.09 0.10 0.09 0.13 0.15 0.17 0.18 0.20 0.24 0.29 0.34 0.42 0.56 0.72 0.84 0.94 0.99 1.00 1.05 1.09 1.07 1.07 1.14 1.10 1.02 1.01 0.96 0.91 0.83 0.77 0.70 0.67 0.63 0.64 0.71 0.76 0.73
0.44 0.37 0.16 0.05 0.03 0.03 0.01 0.02 0.04 0.05 0.06 0.06 0.08 0.11 0.12 0.13 0.17 0.23 0.29 0.33 0.34 0.38 0.44 0.52 0.60 0.71 0.83 0.96 0.97 1.00 1.07 1.16 1.18 1.20 1.07 0.93 0.93 0.99 0.95 0.86 0.84 0.75 0.70 0.68 0.64 0.60 0.61 0.63 0.63
0.57 0.53 0.23 0.07 0.04 0.03 0.02 0.03 0.04 0.05 0.07 0.08 0.07 0.10 0.14 0.16 0.22 0.31 0.45 0.53 0.55 0.55 0.56 0.63 0.72 0.82 0.93 1.02 0.96 1.02 1.12 1.17 1.16 1.14 0.97 0.87 0.89 0.86 0.84 0.69 0.66 0.72 0.70 0.68 0.68 0.69 0.62 0.55 0.47
0.73 0.55 0.21 0.08 0.06 0.06 0.05 0.05 0.05 0.07 0.08 0.09 0.09 0.11 0.16 0.23 0.33 0.41 0.49 0.58 0.64 0.66 0.66 0.71 0.82 0.97 1.08 1.07 1.07 1.15 1.20 1.16 1.07 1.01 0.98 0.94 0.94 0.88 0.80 0.70 0.62 0.68 0.69 0.70 0.74 0.74 0.68 0.60 0.49
0.68 0.49 0.22 0.10 0.08 0.10 0.10 0.08 0.07 0.08 0.09 0.12 0.14 0.13 0.19 0.30 0.41 0.47 0.53 0.65 0.69 0.76 0.77 0.78 0.93 1.06 1.19 1.23 1.17 1.20 1.27 1.31 1.25 1.15 1.12 1.08 1.11 1.05 0.92 0.79 0.68 0.70 0.68 0.71 0.72 0.73 0.68 0.67 0.64
0.61 0.41 0.27 0.16 0.12 0.14 0.16 0.13 0.10 0.10 0.10 0.11 0.18 0.18 0.22 0.29 0.37 0.45 0.56 0.67 0.80 0.89 0.90 0.89 0.98 1.18 1.32 1.35 1.28 1.26 1.25 1.26 1.26 1.26 1.27 1.24 1.17 1.04 0.89 0.77 0.66 0.64 0.63 0.66 0.69 0.70 0.66 0.67 0.69
0.57 0.38 0.27 0.22 0.18 0.17 0.19 0.19 0.15 0.13 0.10 0.12 0.21 0.27 0.31 0.34 0.41 0.46 0.58 0.71 0.77 0.86 0.93 0.98 1.03 1.18 1.37 1.47 1.39 1.34 1.29 1.20 1.24 1.36 1.39 1.28 1.20 1.08 0.95 0.86 0.78 0.70 0.63 0.63 0.67 0.71 0.70 0.69 0.72
0.54 0.43 0.33 0.28 0.26 0.24 0.25 0.23 0.19 0.17 0.14 0.17 0.26 0.31 0.37 0.41 0.48 0.52 0.58 0.63 0.70 0.80 0.93 1.04 1.12 1.20 1.37 1.45 1.44 1.37 1.35 1.34 1.35 1.36 1.39 1.37 1.30 1.21 1.11 1.01 0.96 0.88 0.77 0.71 0.75 0.80 0.81 0.76 0.73
0.54 0.58 0.50 0.37 0.33 0.33 0.34 0.36 0.24 0.17 0.18 0.25 0.29 0.33 0.39 0.45 0.51 0.57 0.61 0.64 0.66 0.80 0.97 1.10 1.24 1.30 1.39 1.49 1.55 1.54 1.46 1.41 1.35 1.30 1.30 1.32 1.32 1.27 1.14 1.06 1.01 0.97 0.95 0.91 0.86 0.83 0.91 0.87 0.79
0.79 0.90 0.77 0.44 0.34 0.39 0.50 0.48 0.24 0.20 0.22 0.29 0.32 0.37 0.40 0.42 0.49 0.58 0.66 0.76 0.83 0.93 1.03 1.15 1.32 1.40 1.43 1.48 1.60 1.68 1.66 1.56 1.43 1.32 1.30 1.27 1.29 1.34 1.30 1.17 1.07 1.04 1.05 1.06 1.04 0.92 0.90 0.90 0.89
1.16 1.05 0.69 0.40 0.33 0.43 0.53 0.47 0.28 0.24 0.28 0.31 0.34 0.41 0.44 0.47 0.52 0.57 0.66 0.76 0.86 0.96 1.07 1.20 1.32 1.41 1.46 1.49 1.65 1.73 1.73 1.66 1.56 1.45 1.31 1.27 1.29 1.28 1.27 1.22 1.18 1.20 1.19 1.13 1.11 1.04 1.01 0.96 0.93
0.93 0.71 0.55 0.43 0.36 0.41 0.46 0.37 0.30 0.28 0.31 0.31 0.34 0.38 0.42 0.46 0.49 0.57 0.69 0.81 0.95 1.05 1.11 1.22 1.33 1.46 1.59 1.72 1.80 1.93 1.90 1.77 1.69 1.59 1.45 1.30 1.27 1.29 1.33 1.27 1.23 1.25 1.25 1.24 1.27 1.24 1.14 1.08 1.08
0.64 0.60 0.52 0.40 0.34 0.42 0.44 0.35 0.31 0.32 0.32 0.32 0.36 0.36 0.41 0.43 0.45 0.52 0.66 0.82 1.00 1.09 1.18 1.26 1.33 1.46 1.58 1.66 1.64 1.72 1.77 1.75 1.74 1.67 1.58 1.50 1.42 1.39 1.44 1.37 1.29 1.28 1.22 1.14 1.11 1.22 1.26 1.19 1.16
0.80 0.78 0.57 0.43 0.36 0.44 0.45 0.38 0.34 0.38 0.37 0.35 0.36 0.38 0.42 0.43 0.45 0.53 0.62 0.78 1.00 1.10 1.18 1.28 1.31 1.43 1.50 1.47 1.53 1.58 1.68 1.76 1.81 1.80 1.75 1.61 1.48 1.47 1.55 1.58 1.46 1.31 1.24 1.17 1.06 1.04 1.14 1.16 1.14
0.87 0.70 0.53 0.52 0.53 0.55 0.56 0.50 0.35 0.38 0.39 0.35 0.32 0.35 0.39 0.41 0.44 0.51 0.60 0.73 0.86 0.98 1.11 1.26 1.26 1.30 1.46 1.54 1.73 1.86 1.94 2.00 1.99 1.90 1.83 1.69 1.51 1.40 1.40 1.52 1.61 1.55 1.38 1.24 1.14 1.08 1.04 1.08 1.07
0.86 0.49 0.52 0.63 0.89 1.00 0.79 0.84 0.40 0.39 0.44 0.38 0.35 0.35 0.36 0.38 0.42 0.49 0.53 0.66 0.78 0.84 1.02 1.17 1.23 1.24 1.40 1.58 1.66 1.69 1.68 1.72 1.66 1.65 1.65 1.63 1.55 1.46 1.42 1.47 1.53 1.57 1.47 1.33 1.26 1.19 1.11 1.08 1.10
0.67 0.53 0.67 0.83 1.06 1.22 0.86 0.91 0.51 0.39 0.47 0.44 0.37 0.37 0.34 0.31 0.36 0.46 0.53 0.60 0.72 0.84 1.03 1.15 1.17 1.26 1.38 1.52 1.62 1.65 1.63 1.59 1.66 1.71 1.70 1.72 1.61 1.53 1.47 1.49 1.52 1.51 1.44 1.35 1.29 1.22 1.17 1.11 1.07
0.70 0.84 1.01 1.20 1.71 1.87 0.79 0.69 0.56 0.42 0.43 0.41 0.37 0.39 0.34 0.30 0.33 0.42 0.55 0.61 0.72 0.86 1.00 1.17 1.25 1.30 1.40 1.54 1.67 1.66 1.62 1.66 1.74 1.73 1.78 1.83 1.78 1.66 1.56 1.52 1.52 1.48 1.41 1.34 1.29 1.24 1.20 1.14 1.07
1.15 1.67 2.44 2.55 2.54 1.49 0.43 0.45 0.48 0.33 0.29 0.31 0.33 0.37 0.33 0.30 0.33 0.42 0.53 0.66 0.75 0.84 0.93 1.13 1.31 1.29 1.28 1.42 1.57 1.60 1.62 1.73 1.72 1.74 1.74 1.81 1.80 1.68 1.57 1.49 1.48 1.48 1.43 1.35 1.31 1.29 1.26 1.23 1.21
1.16 1.46 1.94 1.81 1.19 0.59 0.36 0.44 0.40 0.24 0.20 0.21 0.24 0.30 0.29 0.31 0.36 0.43 0.49 0.61 0.73 0.82 0.90 1.05 1.24 1.27 1.22 1.26 1.38 1.50 1.59 1.74 1.81 1.88 1.85 1.81 1.77 1.69 1.62 1.61 1.58 1.53 1.50 1.50 1.44 1.34 1.29 1.30 1.28
1.01 1.11 1.02 1.36 0.97 0.59 0.46 0.37 0.29 0.18 0.17 0.18 0.21 0.26 0.26 0.28 0.33 0.43 0.46 0.54 0.70 0.82 0.86 0.89 1.13 1.21 1.20 1.25 1.30 1.42 1.51 1.56 1.59 1.72 1.84 1.83 1.76 1.68 1.65 1.62 1.63 1.61 1.62 1.68 1.68 1.56 1.40 1.35 1.28
0.83 0.99 1.29 1.88 1.59 0.84 0.44 0.30 0.31 0.25 0.23 0.20 0.21 0.25 0.27 0.31 0.35 0.44 0.47 0.52 0.64 0.79 0.84 0.81 0.99 1.12 1.11 1.18 1.27 1.34 1.43 1.49 1.49 1.54 1.59 1.65 1.71 1.69 1.67 1.64 1.58 1.55 1.57 1.67 1.78 1.72 1.54 1.45 1.36
0.91 1.21 1.57 1.71 1.32 0.97 0.61 0.43 0.35 0.32 0.29 0.25 0.25 0.27 0.31 0.36 0.42 0.50 0.52 0.57 0.64 0.76 0.81 0.82 0.88 1.09 1.16 1.16 1.19 1.25 1.33 1.44 1.51 1.54 1.49 1.45 1.55 1.68 1.67 1.62 1.58 1.52 1.53 1.58 1.68 1.71 1.70 1.62 1.50
0.83 1.00 1.23 1.68 1.30 0.80 0.68 0.47 0.28 0.29 0.29 0.27 0.30 0.30 0.31 0.34 0.39 0.45 0.51 0.59 0.69 0.82 0.86 0.84 0.88 1.02 1.20 1.25 1.18 1.20 1.28 1.39 1.48 1.49 1.46 1.44 1.38 1.42 1.56 1.64 1.66 1.60 1.51 1.54 1.66 1.68 1.70 1.72 1.65